User: anonymous
Location: Unspecified
(0.0000°N, 0.0000°E)
Time: 16:25:24
(UTC+00:00)
Language:

RESURS DK-1 - Orbit

View from above orbital plane
View from above orbital plane
View from above satellite
View from above satellite

Ground track
Ground track

The orbit data is extracted from the following two-line orbital elements,

1 29228U 06021A   14106.51942591  .00001300  00000-0  11021-3 0  7608
2 29228 069.9375 160.6785 0006110 298.7306 061.3246 15.00611074434323
Epoch (UTC): 16 April 2014 12:27:58
Eccentricity: 0.0006110
inclination: 69.9375°
perigee height: 561 km
apogee height: 569 km
right ascension of ascending node: 160.6785°
argument of perigee: 298.7306°
revolutions per day: 15.00611074
mean anomaly at epoch: 61.3246°
orbit number at epoch: 43432

The dashed part of the orbit path shows where the satellite is in the earth's shadow,  

DLR